Change the Weather History Date:

Thursday, February 13, 2014

  Actual Average Record
Temperature  
Mean Temperature 43 °F -  
Max Temperature 53 °F 40 °F 59 °F (2015)
Min Temperature 33 °F 27 °F 14 °F (1985)
Degree Days  
Heating Degree Days 22    
Moisture  
Dew Point 29 °F    
Average Humidity 57    
Maximum Humidity 76    
Minimum Humidity 35    
Precipitation  
Precipitation 0.09 in - - ()
Sea Level Pressure  
Sea Level Pressure 29.99 in    
Wind  
Wind Speed 13 mph (West)    
Max Wind Speed 33 mph    
Max Gust Speed 40 mph    
Visibility 10 miles    
Events      
Averages and records for this station are not official NWS values.
T = Trace of Precipitation, MM = Missing Value Source: NWS Daily Summary

Daily Weather History Graph

Daily Weather History Graph

Search for Another Location

Airport or City:

Trip Planner

Search our weather history database for the weather conditions in past years. The results will help you decide how hot, cold, wet, or windy it might be!

Date:

Astronomy

Feb. 13, 2014 Rise Set
Actual Time 6:56 AM PST 5:16 PM PST
Civil Twilight 6:25 AM PST 5:47 PM PST
Nautical Twilight 5:51 AM PST 6:21 PM PST
Astronomical Twilight 5:17 AM PST 6:56 PM PST
Moon 4:29 PM PST (2/13) 5:52 AM PST (2/13)
Length of Visible Light 11h 21m
Length of Day
10h 20m
Waxing Gibbous, 99% of the Moon is Illuminated
Feb 13
Waxing Gibbous
Feb 14
Full
Feb 22
Last Quarter
Mar 1
New
Mar 8
First Quarter

Hourly Weather History & Observations

Time (PST) Temp. Windchill Dew Point Humidity Pressure Visibility Wind Dir Wind Speed Gust Speed Precip Events Conditions
12:15 AM 42.8 °F 35.1 °F 33.8 °F 70% 29.85 in 10.0 mi South 16.1 mph - N/A   Mostly Cloudy
12:35 AM 44.6 °F 37.2 °F 33.8 °F 66% 29.85 in 10.0 mi South 17.3 mph - N/A   Mostly Cloudy
12:55 AM 44.6 °F 37.4 °F 33.8 °F 66% 29.84 in 10.0 mi South 16.1 mph - N/A   Mostly Cloudy
1:15 AM 42.8 °F 35.1 °F 33.8 °F 70% 29.84 in 10.0 mi South 16.1 mph 28.8 mph N/A   Mostly Cloudy
1:35 AM 42.8 °F 35.8 °F 33.8 °F 70% 29.84 in 10.0 mi South 13.8 mph 19.6 mph N/A   Mostly Cloudy
1:55 AM 44.6 °F 36.6 °F 33.8 °F 66% 29.85 in 10.0 mi South 19.6 mph - N/A   Mostly Cloudy
2:15 AM 44.6 °F 37.8 °F 33.8 °F 66% 29.86 in 10.0 mi South 15.0 mph - N/A   Mostly Cloudy
2:35 AM 42.8 °F 35.1 °F 33.8 °F 70% 29.85 in 10.0 mi South 16.1 mph - N/A   Mostly Cloudy
2:55 AM 44.6 °F 36.9 °F 35.6 °F 71% 29.85 in 10.0 mi South 18.4 mph - 0.01 in   Mostly Cloudy
3:15 AM 44.6 °F 38.4 °F 35.6 °F 71% 29.85 in 10.0 mi South 12.7 mph 21.9 mph N/A   Mostly Cloudy
3:35 AM 44.6 °F 38.4 °F 35.6 °F 71% 29.85 in 10.0 mi SSW 12.7 mph 20.7 mph N/A   Mostly Cloudy
3:55 AM 46.4 °F 41.1 °F 37.4 °F 71% 29.84 in 10.0 mi South 11.5 mph 21.9 mph N/A   Mostly Cloudy
4:15 AM 46.4 °F 40.4 °F 35.6 °F 66% 29.83 in 10.0 mi SW 13.8 mph 19.6 mph N/A   Mostly Cloudy
4:35 AM 48.2 °F - 35.6 °F 62% 29.85 in 10.0 mi WSW 23.0 mph 33.4 mph N/A   Mostly Cloudy
4:55 AM 46.4 °F 39.0 °F 35.6 °F 66% 29.87 in 10.0 mi West 19.6 mph 38.0 mph N/A   Mostly Cloudy
5:15 AM 44.6 °F 34.2 °F 33.8 °F 66% 29.90 in 5.0 mi West 33.4 mph 40.3 mph 0.02 in   Overcast
5:35 AM 42.8 °F 34.8 °F 33.8 °F 70% 29.91 in 7.0 mi West 17.3 mph 33.4 mph 0.05 in   Overcast
5:55 AM 42.8 °F 35.1 °F 32.0 °F 66% 29.93 in 10.0 mi West 16.1 mph - 0.06 in   Overcast
6:15 AM 41.0 °F 31.4 °F 33.8 °F 76% 29.94 in 8.0 mi West 21.9 mph 27.6 mph 0.01 in   Mostly Cloudy
6:35 AM 42.8 °F 35.8 °F 32.0 °F 66% 29.93 in 10.0 mi West 13.8 mph 24.2 mph 0.02 in   Scattered Clouds
6:55 AM 42.8 °F 38.0 °F 30.2 °F 61% 29.95 in 10.0 mi NW 8.1 mph - 0.02 in   Clear
7:15 AM 42.8 °F 38.0 °F 30.2 °F 61% 29.96 in 10.0 mi WNW 8.1 mph - N/A   Clear
7:35 AM 41.0 °F 35.2 °F 26.6 °F 57% 29.97 in - NNW 9.2 mph - N/A   Clear
7:55 AM 39.2 °F 34.2 °F 30.2 °F 70% 29.98 in 10.0 mi NNE 6.9 mph - N/A   Partly Cloudy
8:15 AM 42.8 °F 36.2 °F 30.2 °F 61% 29.99 in 10.0 mi NW 12.7 mph 17.3 mph N/A   Mostly Cloudy
8:35 AM 44.6 °F 35.9 °F 30.2 °F 57% 30.00 in 10.0 mi WNW 23.0 mph 26.5 mph N/A   Overcast
8:55 AM 46.4 °F 40.4 °F 30.2 °F 53% 30.01 in 10.0 mi WNW 13.8 mph - N/A   Mostly Cloudy
9:15 AM 46.4 °F 38.7 °F 30.2 °F 53% 30.02 in 10.0 mi WNW 20.7 mph 26.5 mph N/A   Partly Cloudy
9:35 AM 46.4 °F 39.5 °F 30.2 °F 53% 30.02 in 10.0 mi West 17.3 mph 23.0 mph N/A   Clear
9:55 AM 46.4 °F 39.8 °F 30.2 °F 53% 30.03 in 10.0 mi West 16.1 mph - N/A   Clear
10:15 AM 48.2 °F - 30.2 °F 50% 30.04 in 10.0 mi West 16.1 mph 27.6 mph N/A   Clear
10:35 AM 48.2 °F - 30.2 °F 50% 30.06 in 10.0 mi NNW 10.4 mph - N/A   Partly Cloudy
10:55 AM 48.2 °F - 30.2 °F 50% 30.06 in 10.0 mi NW 17.3 mph 20.7 mph N/A   Partly Cloudy
11:35 AM 50.0 °F - 30.2 °F 47% 30.06 in 10.0 mi West 11.5 mph - N/A   Clear
11:55 AM 50.0 °F - 28.4 °F 43% 30.06 in 10.0 mi WSW 6.9 mph - N/A   Clear
12:15 PM 53.6 °F - 28.4 °F 38% 30.05 in 10.0 mi NW 3.5 mph - N/A   Clear
12:35 PM 51.8 °F - 26.6 °F 38% 30.05 in 10.0 mi NW 10.4 mph 17.3 mph N/A   Partly Cloudy
12:55 PM 50.0 °F - 26.6 °F 40% 30.05 in 10.0 mi NNW 13.8 mph - N/A   Partly Cloudy
1:15 PM 51.8 °F - 24.8 °F 35% 30.05 in 10.0 mi NW 12.7 mph - N/A   Clear
1:35 PM 51.8 °F - 24.8 °F 35% 30.05 in 10.0 mi NW 9.2 mph - N/A   Clear
1:55 PM 50.0 °F - 24.8 °F 37% 30.05 in 10.0 mi NNW 12.7 mph - N/A   Clear
2:15 PM 48.2 °F - 24.8 °F 40% 30.05 in 10.0 mi NW 10.4 mph - N/A   Clear
2:35 PM 48.2 °F - 24.8 °F 40% 30.05 in 10.0 mi NW 8.1 mph - N/A   Clear
2:55 PM 48.2 °F - 24.8 °F 40% 30.05 in 10.0 mi NW 11.5 mph - N/A   Clear
3:15 PM 48.2 °F - 26.6 °F 43% 30.05 in 10.0 mi NNW 9.2 mph - N/A   Clear
3:35 PM 46.4 °F 41.9 °F 24.8 °F 43% 30.06 in 10.0 mi NNW 9.2 mph - N/A   Clear
3:55 PM 46.4 °F 42.4 °F 24.8 °F 43% 30.07 in 10.0 mi NNW 8.1 mph - N/A   Clear
4:15 PM 44.6 °F 43.1 °F 26.6 °F 49% 30.07 in 10.0 mi NE 3.5 mph - N/A   Clear
4:35 PM 44.6 °F - 26.6 °F 49% 30.08 in 10.0 mi Calm Calm - N/A   Clear
4:55 PM 46.4 °F - 24.8 °F 43% 30.08 in 10.0 mi Calm Calm - N/A   Clear
5:15 PM 42.8 °F - 24.8 °F 49% 30.08 in 10.0 mi Calm Calm - N/A   Clear
5:35 PM 42.8 °F 41.1 °F 23.0 °F 46% 30.07 in 10.0 mi South 3.5 mph - N/A   Clear
5:55 PM 39.2 °F 35.9 °F 24.8 °F 56% 30.07 in 10.0 mi WSW 4.6 mph - N/A   Clear
6:15 PM 37.4 °F 31.4 °F 24.8 °F 60% 30.07 in 10.0 mi South 8.1 mph - N/A   Clear
6:35 PM 37.4 °F 33.8 °F 24.8 °F 60% 30.04 in 10.0 mi South 4.6 mph - N/A   Clear
6:55 PM 37.4 °F 32.8 °F 24.8 °F 60% 30.04 in 10.0 mi South 5.8 mph - N/A   Clear
7:15 PM 37.4 °F 33.8 °F 24.8 °F 60% 30.03 in 10.0 mi South 4.6 mph - N/A   Clear
7:35 PM 37.4 °F - 24.8 °F 60% 30.04 in 10.0 mi Calm Calm - N/A   Clear
7:55 PM 39.2 °F 33.0 °F 24.8 °F 56% 30.03 in 10.0 mi SSW 9.2 mph - N/A   Clear
8:15 PM 39.2 °F 33.0 °F 23.0 °F 52% 30.03 in 10.0 mi South 9.2 mph - N/A   Clear
8:35 PM 39.2 °F 33.6 °F 24.8 °F 56% 30.04 in 10.0 mi South 8.1 mph - N/A   Clear
8:55 PM 42.8 °F 37.5 °F 24.8 °F 49% 30.03 in 10.0 mi SSW 9.2 mph - N/A   Clear
9:15 PM 37.4 °F 31.4 °F 21.2 °F 52% 30.03 in 10.0 mi ESE 8.1 mph - N/A   Clear
9:35 PM 35.6 °F 32.8 °F 23.0 °F 60% 30.03 in 10.0 mi East 3.5 mph - N/A   Clear
9:55 PM 35.6 °F 31.7 °F 24.8 °F 65% 30.02 in 10.0 mi West 4.6 mph - N/A   Clear
10:15 PM 35.6 °F 29.9 °F 23.0 °F 60% 30.02 in 10.0 mi North 6.9 mph - N/A   Clear
10:35 PM 35.6 °F 30.7 °F 24.8 °F 65% 30.00 in 10.0 mi WNW 5.8 mph - N/A   Clear
10:55 PM 33.8 °F 29.6 °F 24.8 °F 70% 30.00 in 10.0 mi NNW 4.6 mph - N/A   Clear
11:15 PM 35.6 °F - 24.8 °F 65% 29.99 in 10.0 mi Calm Calm - N/A   Clear
11:35 PM 35.6 °F 31.7 °F 24.8 °F 65% 29.98 in 10.0 mi NW 4.6 mph - N/A   Mostly Cloudy
11:55 PM 33.8 °F - 24.8 °F 70% 29.98 in 10.0 mi Calm Calm - N/A   Overcast